When you browse on this site, cookies collect data to enhance your experience and personalize the content and advertising you see.
Visit our Privacy Policy to learn more. By continuing to use the site, you agree to this use of cookies and data.
  • In Switzerland
  • List of Countries
  • For 7 days
  • Water Temperature
  • Satellite Maps
  • Weather Map
  • Weather Widgets
  • user-avatar
    Login

    Hourly Weather Lubczyna

    Today, 27 May, Monday

    Time Temperature Precipitation Wind Pressure Humidity
    00:00 +14°C° 0 mm 3 mps 744 mmHg 86%
    01:00 +13°C° 0 mm 3 mps 744 mmHg 88%
    02:00 +13°C° 0 mm 3 mps 744 mmHg 89%
    03:00 +13°C° 0 mm 3 mps 743 mmHg 90%
    04:00 +12°C° 0 mm 3 mps 743 mmHg 92%
    05:00 +14°C° 0 mm 3 mps 743 mmHg 86%
    06:00 +17°C° 0 mm 4 mps 743 mmHg 81%
    07:00 +18°C° 0 mm 4 mps 743 mmHg 75%
    08:00 +20°C° 0 mm 4 mps 743 mmHg 69%
    09:00 +21°C° 0 mm 4 mps 743 mmHg 63%
    10:00 +23°C° 0 mm 4 mps 743 mmHg 56%
    11:00 +25°C° 0 mm 4 mps 742 mmHg 55%
    12:00 +25°C° 0 mm 4 mps 742 mmHg 53%
    13:00 +26°C° 0 mm 4 mps 742 mmHg 52%
    14:00 +25°C° 0.3 mm 3 mps 742 mmHg 54%
    15:00 +25°C° 0.3 mm 3 mps 741 mmHg 57%
    16:00 +25°C° 0.3 mm 3 mps 741 mmHg 59%
    17:00 +24°C° 0.4 mm 2 mps 741 mmHg 65%
    18:00 +23°C° 0.4 mm 2 mps 741 mmHg 72%
    19:00 +20°C° 0.4 mm 2 mps 741 mmHg 79%
    20:00 +20°C° 0.3 mm 2 mps 740 mmHg 83%
    21:00 +19°C° 0.3 mm 2 mps 740 mmHg 87%
    22:00 +18°C° 0.3 mm 2 mps 740 mmHg 91%
    23:00 +18°C° 1.3 mm 3 mps 740 mmHg 92%

    Tomorrow, 28 May, Tuesday

    Time Temperature Precipitation Wind Pressure Humidity
    00:00 +18°C° 1.3 mm 4 mps 739 mmHg 92%
    01:00 +16°C° 1.3 mm 5 mps 739 mmHg 93%
    02:00 +17°C° 1.5 mm 4 mps 739 mmHg 93%
    03:00 +15°C° 1.5 mm 4 mps 738 mmHg 94%
    04:00 +16°C° 1.5 mm 3 mps 738 mmHg 94%
    05:00 +16°C° 0.1 mm 3 mps 738 mmHg 93%
    06:00 +16°C° 0.1 mm 3 mps 738 mmHg 92%
    07:00 +17°C° 0.1 mm 2 mps 738 mmHg 90%
    08:00 +17°C° 0.1 mm 3 mps 738 mmHg 88%
    09:00 +17°C° 0.1 mm 4 mps 738 mmHg 86%
    10:00 +18°C° 0.1 mm 4 mps 738 mmHg 84%
    11:00 +18°C° 0.2 mm 4 mps 738 mmHg 83%
    12:00 +19°C° 0.2 mm 4 mps 738 mmHg 82%
    13:00 +19°C° 0.2 mm 4 mps 738 mmHg 81%
    14:00 +17°C° 0.3 mm 5 mps 738 mmHg 84%
    15:00 +16°C° 0.3 mm 6 mps 739 mmHg 88%
    16:00 +15°C° 0.3 mm 6 mps 739 mmHg 91%
    17:00 +14°C° 0.3 mm 7 mps 739 mmHg 92%
    18:00 +12°C° 0.3 mm 7 mps 739 mmHg 92%
    19:00 +11°C° 0.3 mm 7 mps 740 mmHg 92%
    20:00 +11°C° 1.1 mm 6 mps 741 mmHg 93%
    21:00 +11°C° 1.1 mm 6 mps 741 mmHg 93%
    22:00 +10°C° 1.1 mm 5 mps 742 mmHg 93%
    23:00 +10°C° 0.7 mm 5 mps 742 mmHg 92%

    Day after tomorrow, 29 May, Wednesday

    Time Temperature Precipitation Wind Pressure Humidity
    00:00 +9°C° 0.7 mm 5 mps 743 mmHg 91%
    01:00 +9°C° 0.7 mm 5 mps 743 mmHg 90%
    02:00 +8°C° 0.1 mm 5 mps 744 mmHg 89%
    03:00 +8°C° 0.1 mm 4 mps 744 mmHg 89%
    04:00 +7°C° 0.1 mm 4 mps 745 mmHg 88%
    05:00 +7°C° 0 mm 4 mps 745 mmHg 87%
    06:00 +7°C° 0 mm 4 mps 746 mmHg 87%
    07:00 +7°C° 0 mm 4 mps 746 mmHg 86%
    08:00 +10°C° 0 mm 4 mps 747 mmHg 81%
    09:00 +11°C° 0 mm 4 mps 747 mmHg 75%
    10:00 +12°C° 0 mm 4 mps 747 mmHg 70%
    11:00 +13°C° 0 mm 4 mps 748 mmHg 65%
    12:00 +14°C° 0 mm 4 mps 748 mmHg 61%
    13:00 +17°C° 0 mm 4 mps 748 mmHg 56%
    14:00 +17°C° 0 mm 4 mps 748 mmHg 57%
    15:00 +17°C° 0 mm 4 mps 748 mmHg 58%
    16:00 +17°C° 0 mm 4 mps 748 mmHg 59%
    17:00 +16°C° 0 mm 3 mps 748 mmHg 65%
    18:00 +14°C° 0 mm 3 mps 748 mmHg 70%
    19:00 +14°C° 0 mm 2 mps 748 mmHg 76%
    20:00 +13°C° 0 mm 2 mps 748 mmHg 78%
    21:00 +12°C° 0 mm 2 mps 749 mmHg 81%
    22:00 +10°C° 0 mm 2 mps 749 mmHg 83%
    23:00 +10°C° 0 mm 2 mps 749 mmHg 82%

    30 May, Thursday

    Time Temperature Precipitation Wind Pressure Humidity
    00:00 +10°C° 0 mm 2 mps 749 mmHg 82%
    01:00 +10°C° 0 mm 2 mps 749 mmHg 81%
    02:00 +9°C° 0 mm 2 mps 749 mmHg 80%
    03:00 +9°C° 0 mm 2 mps 749 mmHg 80%
    04:00 +9°C° 0 mm 2 mps 750 mmHg 79%
    05:00 +9°C° 0 mm 2 mps 750 mmHg 75%
    06:00 +10°C° 0 mm 2 mps 750 mmHg 71%
    07:00 +12°C° 0 mm 2 mps 750 mmHg 68%
    08:00 +12°C° 0 mm 2 mps 750 mmHg 66%
    09:00 +13°C° 0 mm 2 mps 750 mmHg 64%
    10:00 +13°C° 0 mm 2 mps 750 mmHg 62%
    11:00 +14°C° 0 mm 2 mps 750 mmHg 61%
    12:00 +14°C° 0 mm 2 mps 750 mmHg 60%
    13:00 +14°C° 0 mm 1 mps 750 mmHg 60%
    14:00 +15°C° 0 mm 1 mps 749 mmHg 59%
    15:00 +15°C° 0 mm 1 mps 749 mmHg 58%
    16:00 +15°C° 0 mm 1 mps 749 mmHg 57%
    17:00 +15°C° 0 mm 1 mps 749 mmHg 60%
    18:00 +14°C° 0 mm 2 mps 749 mmHg 64%
    19:00 +14°C° 0 mm 2 mps 749 mmHg 67%
    20:00 +13°C° 0 mm 2 mps 749 mmHg 69%
    21:00 +12°C° 0 mm 2 mps 749 mmHg 70%
    22:00 +9°C° 0 mm 3 mps 749 mmHg 72%
    23:00 +9°C° 0 mm 3 mps 748 mmHg 74%

    31 May, Friday

    Time Temperature Precipitation Wind Pressure Humidity
    00:00 +9°C° 0 mm 3 mps 748 mmHg 76%
    01:00 +9°C° 0 mm 3 mps 748 mmHg 78%
    02:00 +9°C° 0 mm 3 mps 747 mmHg 83%
    03:00 +9°C° 0 mm 3 mps 747 mmHg 87%
    04:00 +9°C° 0 mm 3 mps 747 mmHg 91%
    05:00 +11°C° 0 mm 3 mps 746 mmHg 89%
    06:00 +13°C° 0 mm 3 mps 746 mmHg 86%
    07:00 +14°C° 0 mm 3 mps 746 mmHg 84%
    08:00 +17°C° 0 mm 4 mps 745 mmHg 79%
    09:00 +18°C° 0 mm 4 mps 745 mmHg 75%
    10:00 +20°C° 0 mm 4 mps 745 mmHg 71%
    11:00 +17°C° 1.2 mm 6 mps 745 mmHg 76%
    12:00 +15°C° 1.2 mm 8 mps 746 mmHg 82%
    13:00 +12°C° 1.2 mm 10 mps 746 mmHg 87%
    14:00 +10°C° 1 mm 9 mps 748 mmHg 87%
    15:00 +8°C° 1 mm 9 mps 749 mmHg 87%
    16:00 +6°C° 1 mm 8 mps 750 mmHg 86%
    17:00 +7°C° 0.1 mm 6 mps 751 mmHg 84%
    18:00 +8°C° 0.1 mm 5 mps 752 mmHg 82%
    19:00 +8°C° 0.1 mm 4 mps 753 mmHg 79%
    20:00 +8°C° 0 mm 4 mps 753 mmHg 78%
    21:00 +7°C° 0 mm 4 mps 754 mmHg 76%
    22:00 +6°C° 0 mm 4 mps 754 mmHg 75%
    23:00 +6°C° 0 mm 4 mps 754 mmHg 77%

    1 June, Saturday

    Time Temperature Precipitation Wind Pressure Humidity
    00:00 +5°C° 0 mm 4 mps 755 mmHg 80%
    01:00 +4°C° 0 mm 4 mps 755 mmHg 83%
    02:00 +4°C° 0 mm 3 mps 755 mmHg 85%
    03:00 +4°C° 0 mm 3 mps 755 mmHg 87%
    04:00 +4°C° 0 mm 3 mps 755 mmHg 90%
    05:00 +5°C° 0 mm 4 mps 756 mmHg 86%
    06:00 +6°C° 0 mm 4 mps 756 mmHg 82%
    07:00 +8°C° 0 mm 4 mps 756 mmHg 78%
    08:00 +9°C° 0 mm 5 mps 756 mmHg 73%
    09:00 +10°C° 0 mm 5 mps 756 mmHg 67%
    10:00 +13°C° 0 mm 5 mps 756 mmHg 62%
    11:00 +12°C° 0 mm 5 mps 756 mmHg 62%
    12:00 +11°C° 0 mm 6 mps 756 mmHg 62%
    13:00 +11°C° 0 mm 6 mps 756 mmHg 63%
    14:00 +11°C° 0 mm 6 mps 756 mmHg 62%
    15:00 +13°C° 0 mm 5 mps 756 mmHg 61%
    16:00 +13°C° 0 mm 5 mps 756 mmHg 60%
    17:00 +12°C° 0 mm 4 mps 756 mmHg 66%
    18:00 +11°C° 0 mm 3 mps 757 mmHg 71%
    19:00 +11°C° 0 mm 3 mps 757 mmHg 77%
    20:00 +10°C° 0 mm 3 mps 757 mmHg 79%
    21:00 +8°C° 0 mm 3 mps 757 mmHg 81%
    22:00 +7°C° 0 mm 2 mps 757 mmHg 83%
    23:00 +7°C° 0 mm 2 mps 757 mmHg 84%
    Show more